Starlink 32124

operational
NORAD ID: 60298 Int'l Des: 2024-132 Owner: SPXS Country: US Constellation: starlink
LEOCIRCULAR

About Starlink 32124

Description loading...

Live Position

Loading 3D Globe...

Upcoming Passes

Altitude History

Altitude vs Time

uPlot chart will show altitude changes over time

Two-Line Element Set

1 60298U 24132W 25354.43916149 -.00000283 00000-0 25755-5 0 9996
2 60298 53.1606 60.7651 0001161 95.1196 264.9937 15.30189658 79421
Epoch: Dec 20, 2025 • Age: 15 hours

Current Status

Altitude 476.6 km
Velocity 7.63 km/s
Sub-Earth Point 31.70°N, 101.86°E
Launch Date Jul 28, 2024
Age 1.3 years
Type internet

Technical Details

Classification Payload
Mass 730.00 kg
Dry Mass 700.00 kg
Total Mass 730.00 kg
Length 0.30 m
Diameter 4.10 m
Span 29.00 m
Shape Box + pan
Manufacturer SPXS
Bus Type Starlink V2M
Phase Status In Orbit
Owner/State SPXS/US

Large Constellations

Loading constellations...